Погода в Жукове

Россия / Смоленская область     54°54′14″N   32°01′08″E
темп.,
°C
ветер,
м/с
пор.,
м/с
влажн.,
%
обл.,
%
осадки,
мм/ч
давл.,
гПа
погр.,
м
18 января, вт
вт1800:00−5ссз91791100 1.6 9911089
03:00−7ссз91786100 1.9 9971200
06:00−7ссз81685100 0.1 10021040
09:00−8ссз61588100 0.1 1007960
12:00−7ссз71487100 0.1 1010983
15:00−7ссз61387100 0.1 1013942
18:00−8ссз61389100 0.1 1018741
21:00−9ссз51391100 0.1 1020534
19 января, ср
ср1900:00−13зсз269878 0.0 102288
03:00−14сз25100100 0.0 102379
06:00−10зюз2597100 0.0 1022130
09:00−7юз389693 0.3 1021242
12:00−4юз4109695 0.3 1019320
15:00−2юз41191100 0.3 1016501
18:00−5юз4129495 0.0 1015369
21:00−3юз41195100 0.1 1013408
20 января, чт
чт2000:00
03:00−2ююз51197100 0.1 1009539
06:00−2ююз51297100 0.0 1006556
09:00
12:00−2ю61496100 0.1 1002701
15:00−1ююз61195100 0.2 1000880
18:00−2ююз51196100 0.9 999743
21:00−3ю51196100 2.2 999662
21 января, пт
пт2100:00−3ю41195100 0.5 999558
03:00−2ююв4996100 0.8 998450
06:00−3ююз3896100 0.6 998515
09:00−9ююв279735 0.7 99999
12:00−6ююв399573 0.0 999325
15:00−5ююв4994100 0.1 999478
18:00−6юв399580 0.1 999275
21:00−7вюв379672 0.3 1000195
22 января, сб
сб2200:00−10в259871 0.1 100272
03:00−9всв259767 0.1 100486
06:00−9всв259765 0.1 100694
09:00−13св259987 0.1 100979
12:00−8всв249681 0.0 1011148
15:00−6ссв249586 0.1 1013243
18:00−9ссв279779 0.1 1016152
21:00−12ссв259871 0.1 101980